TimeMDT,TemperatureF,Dew PointF,Humidity,Sea Level PressureIn,VisibilityMPH,Wind Direction,Wind SpeedMPH,Gust SpeedMPH,PrecipitationIn,Events,Conditions,WindDirDegrees,DateUTC
12:15 AM,-9999,-9999,N/A,29.95,-9999.0,WNW,43.7,-,N/A,,Overcast,300,2013-04-09 06:15:00
12:35 AM,-9999,-9999,N/A,29.96,-9999.0,WNW,42.6,-,N/A,,Overcast,300,2013-04-09 06:35:00
12:55 AM,-9999,-9999,N/A,29.98,-9999.0,WNW,40.3,-,N/A,,Overcast,300,2013-04-09 06:55:00
1:15 AM,-9999,-9999,N/A,29.99,-9999.0,WNW,38.0,-,N/A,,Overcast,300,2013-04-09 07:15:00
1:35 AM,-9999,-9999,N/A,30.00,-9999.0,WNW,38.0,-,N/A,,Overcast,300,2013-04-09 07:35:00
1:55 AM,-9999,-9999,N/A,29.99,-9999.0,NW,42.6,-,N/A,,Overcast,310,2013-04-09 07:55:00
2:15 AM,-9999,-9999,N/A,29.99,-9999.0,WNW,42.6,-,N/A,,Overcast,300,2013-04-09 08:15:00
2:35 AM,-9999,-9999,N/A,30.00,-9999.0,NW,41.4,-,N/A,,Overcast,310,2013-04-09 08:35:00
2:55 AM,-9999,-9999,N/A,30.00,-9999.0,NW,41.4,-,N/A,,Overcast,310,2013-04-09 08:55:00
3:15 AM,-9999,-9999,N/A,30.00,-9999.0,WNW,39.1,-,N/A,,Overcast,300,2013-04-09 09:15:00
3:35 AM,-9999,-9999,N/A,30.00,-9999.0,WNW,40.3,-,N/A,,Unknown,300,2013-04-09 09:35:00
3:55 AM,-9999,-9999,N/A,30.00,-9999.0,WNW,39.1,-,N/A,,Unknown,300,2013-04-09 09:55:00
4:15 AM,-9999,-9999,N/A,30.00,-9999.0,WNW,40.3,-,N/A,,Unknown,300,2013-04-09 10:15:00
4:35 AM,-9999,-9999,N/A,30.00,-9999.0,WNW,41.4,-,N/A,,Overcast,300,2013-04-09 10:35:00
4:55 AM,-9999,-9999,N/A,30.02,-9999.0,NW,38.0,-,N/A,,Unknown,310,2013-04-09 10:55:00
5:15 AM,-9999,-9999,N/A,30.03,-9999.0,WNW,38.0,-,N/A,,Unknown,300,2013-04-09 11:15:00
5:35 AM,-9999,-9999,N/A,30.03,-9999.0,WNW,36.8,-,N/A,,Overcast,300,2013-04-09 11:35:00
5:55 AM,-9999,-9999,N/A,30.02,-9999.0,WNW,38.0,-,N/A,,Unknown,300,2013-04-09 11:55:00
6:15 AM,-9999,-9999,N/A,30.02,-9999.0,WNW,38.0,-,N/A,,Unknown,300,2013-04-09 12:15:00
6:35 AM,-9999,-9999,N/A,30.03,-9999.0,WNW,39.1,-,N/A,,Overcast,300,2013-04-09 12:35:00
6:55 AM,-9999,-9999,N/A,30.04,-9999.0,WNW,40.3,-,N/A,,Overcast,300,2013-04-09 12:55:00
7:15 AM,-9999,-9999,N/A,30.05,-9999.0,WNW,40.3,-,N/A,,Overcast,300,2013-04-09 13:15:00
7:55 AM,-9999,-9999,N/A,30.08,-9999.0,WNW,34.5,-,N/A,,Overcast,300,2013-04-09 13:55:00
8:15 AM,-9999,-9999,N/A,30.09,-9999.0,WNW,35.7,-,N/A,,Unknown,300,2013-04-09 14:15:00
8:35 AM,-9999,-9999,N/A,30.10,-9999.0,NW,35.7,-,N/A,,Unknown,310,2013-04-09 14:35:00
8:55 AM,-9999,-9999,N/A,30.10,-9999.0,NW,35.7,-,N/A,,Unknown,310,2013-04-09 14:55:00
9:15 AM,-9999,-9999,N/A,30.10,-9999.0,NW,35.7,-,N/A,,Unknown,310,2013-04-09 15:15:00
9:35 AM,-9999,-9999,N/A,30.10,-9999.0,NW,36.8,-,N/A,,Unknown,310,2013-04-09 15:35:00
9:55 AM,-9999,-9999,N/A,30.11,-9999.0,NW,34.5,-,N/A,,Unknown,310,2013-04-09 15:55:00
10:15 AM,-9999,-9999,N/A,30.12,-9999.0,NW,35.7,-,N/A,,Unknown,310,2013-04-09 16:15:00
10:35 AM,-9999,-9999,N/A,30.11,-9999.0,NW,38.0,-,N/A,,Unknown,310,2013-04-09 16:35:00
10:55 AM,-9999,-9999,N/A,30.12,-9999.0,NW,36.8,-,N/A,,Unknown,310,2013-04-09 16:55:00
11:15 AM,-9999,-9999,N/A,30.13,-9999.0,NW,36.8,-,N/A,,Overcast,310,2013-04-09 17:15:00
11:35 AM,-9999,-9999,N/A,30.12,-9999.0,NW,38.0,-,N/A,,Overcast,310,2013-04-09 17:35:00
11:55 AM,-9999,-9999,N/A,30.12,-9999.0,NW,35.7,-,N/A,,Overcast,310,2013-04-09 17:55:00
12:15 PM,-9999,-9999,N/A,30.12,-9999.0,NW,34.5,-,N/A,,Overcast,310,2013-04-09 18:15:00
12:35 PM,-9999,-9999,N/A,30.13,-9999.0,NW,33.4,-,N/A,,Overcast,310,2013-04-09 18:35:00
12:55 PM,-9999,-9999,N/A,30.13,-9999.0,NW,33.4,-,N/A,,Overcast,310,2013-04-09 18:55:00
1:15 PM,-9999,-9999,N/A,30.13,-9999.0,NW,31.1,-,N/A,,Unknown,310,2013-04-09 19:15:00
1:35 PM,-9999,-9999,N/A,30.13,-9999.0,NW,28.8,-,N/A,,Unknown,310,2013-04-09 19:35:00
1:55 PM,-9999,-9999,N/A,30.13,-9999.0,WNW,27.6,-,N/A,,Overcast,300,2013-04-09 19:55:00
2:15 PM,-9999,-9999,N/A,30.13,-9999.0,WNW,25.3,-,N/A,,Overcast,300,2013-04-09 20:15:00
2:35 PM,-9999,-9999,N/A,30.13,-9999.0,NW,26.5,-,N/A,,Overcast,310,2013-04-09 20:35:00
3:15 PM,-9999,-9999,N/A,30.13,-9999.0,NW,23.0,-,N/A,,Overcast,310,2013-04-09 21:15:00
3:35 PM,-9999,-9999,N/A,30.12,-9999.0,NW,25.3,-,N/A,,Overcast,320,2013-04-09 21:35:00
3:55 PM,-9999,-9999,N/A,30.13,-9999.0,NW,26.5,-,N/A,,Overcast,320,2013-04-09 21:55:00
4:15 PM,-9999,-9999,N/A,30.12,-9999.0,NW,27.6,-,N/A,,Unknown,320,2013-04-09 22:15:00
4:35 PM,-9999,-9999,N/A,30.12,-9999.0,NW,28.8,-,N/A,,Unknown,320,2013-04-09 22:35:00
4:55 PM,-9999,-9999,N/A,30.13,-9999.0,NW,28.8,-,N/A,,Unknown,320,2013-04-09 22:55:00
5:15 PM,-9999,-9999,N/A,30.13,-9999.0,NW,27.6,-,N/A,,Unknown,320,2013-04-09 23:15:00
5:35 PM,-9999,-9999,N/A,30.15,-9999.0,NW,24.2,-,N/A,,Overcast,320,2013-04-09 23:35:00
5:55 PM,-9999,-9999,N/A,30.15,-9999.0,NW,23.0,-,N/A,,Unknown,320,2013-04-09 23:55:00
6:15 PM,-9999,-9999,N/A,30.16,-9999.0,NW,23.0,-,N/A,,Overcast,320,2013-04-10 00:15:00
6:35 PM,-9999,-9999,N/A,30.16,-9999.0,NW,23.0,-,N/A,,Unknown,320,2013-04-10 00:35:00
6:55 PM,-9999,-9999,N/A,30.16,-9999.0,NW,21.9,-,N/A,,Unknown,310,2013-04-10 00:55:00
7:15 PM,-9999,-9999,N/A,30.16,-9999.0,NW,24.2,-,N/A,,Unknown,320,2013-04-10 01:15:00
7:35 PM,-9999,-9999,N/A,30.16,-9999.0,NW,21.9,-,N/A,,Unknown,320,2013-04-10 01:35:00
7:55 PM,-9999,-9999,N/A,30.16,-9999.0,NW,19.6,-,N/A,,Overcast,320,2013-04-10 01:55:00
8:55 PM,-9999,-9999,N/A,30.18,-9999.0,NW,16.1,-,N/A,,Overcast,310,2013-04-10 02:55:00
9:15 PM,-9999,-9999,N/A,30.18,-9999.0,NW,13.8,-,N/A,,Overcast,320,2013-04-10 03:15:00
9:35 PM,-9999,-9999,N/A,30.18,-9999.0,NW,12.7,-,N/A,,Overcast,320,2013-04-10 03:35:00
10:15 PM,-9999,-9999,N/A,30.19,-9999.0,NW,11.5,-,N/A,,Overcast,320,2013-04-10 04:15:00
10:35 PM,-9999,-9999,N/A,30.19,-9999.0,NW,9.2,-,N/A,,Unknown,310,2013-04-10 04:35:00
10:55 PM,-9999,-9999,N/A,30.18,-9999.0,NW,6.9,-,N/A,,Unknown,310,2013-04-10 04:55:00
11:15 PM,-9999,-9999,N/A,30.18,-9999.0,NW,5.8,-,N/A,,Unknown,320,2013-04-10 05:15:00
11:35 PM,-9999,-9999,N/A,30.17,-9999.0,NW,5.8,-,N/A,,Unknown,320,2013-04-10 05:35:00
11:55 PM,-9999,-9999,N/A,30.16,-9999.0,NW,5.8,-,N/A,,Overcast,310,2013-04-10 05:55:00